Location: Bittkow
(50.3000°N, 19.0000°E)
Time: 12:59:04
(UTC+00:00)

ADEOS II - Pass Details

Date: 19 September 2020
Orbit: 799 x 801 km, 98.5° (Epoch: 25 October)

Event Time Altitude Azimuth Distance (km) Brightness Sun altitude
Rises 03:11:01 0° 3° (N) 3,322 5.6 -12.6°
Reaches altitude 10° 03:14:23 10° 340° (NNW) 2,386 4.5 -12.1°
Maximum altitude 03:17:09 15° 309° (NW) 2,075 3.9 -11.7°
Enters shadow 03:19:23 11° 282° (WNW) 2,279 3.9 -11.3°
